GLT1 KCRQ-KCVG

Flight info

Callsign GLT1
Flight time N/A
Altitude 41000
Route JLI HRRBR PAYSO LOWBO KENTO Q176 BUM DAAVE SARGO5
Aircraft C750/M-VGDW/C

Departure

Time 2026-04-22 05:33
Airport McClellan-Palomar Airport (KCRQ)

Arrival

Time N/A
Airport Cincinnati Northern Kentucky International Airport (KCVG)
Time Latitude Longitude Altitude Speed Heading
2026-04-22 05:22 33.12721 -117.27951 328 ft 0 kts 260°
2026-04-22 05:30 33.12721 -117.27953 328 ft 1 kts 260°
2026-04-22 05:30 33.12719 -117.27970 328 ft 4 kts 264°
2026-04-22 05:30 33.12729 -117.28013 328 ft 3 kts 340°
2026-04-22 05:30 33.12750 -117.27959 328 ft 15 kts 79°
2026-04-22 05:31 33.12775 -117.27809 327 ft 19 kts 79°
2026-04-22 05:31 33.12798 -117.27661 326 ft 18 kts 79°
2026-04-22 05:31 33.12815 -117.27560 328 ft 17 kts 79°
2026-04-22 05:32 33.12833 -117.27451 327 ft 16 kts 79°
2026-04-22 05:32 33.12853 -117.27324 328 ft 15 kts 79°
2026-04-22 05:32 33.12906 -117.27232 328 ft 12 kts 26°
2026-04-22 05:33 33.12947 -117.27245 331 ft 2 kts 275°
2026-04-22 05:33 33.12914 -117.27459 331 ft 75 kts 259°
2026-04-22 05:33 33.12753 -117.28465 423 ft 150 kts 259°
2026-04-22 05:33 33.12519 -117.29691 1122 ft 158 kts 257°
2026-04-22 05:34 33.12220 -117.31058 1695 ft 180 kts 254°
2026-04-22 05:34 33.11902 -117.32623 2309 ft 204 kts 256°
2026-04-22 05:34 33.11605 -117.34371 2949 ft 226 kts 257°
2026-04-22 05:34 33.11228 -117.36303 3604 ft 250 kts 256°
2026-04-22 05:35 33.10585 -117.38226 4577 ft 256 kts 235°
2026-04-22 05:35 33.09124 -117.39435 5569 ft 263 kts 200°
2026-04-22 05:35 33.07310 -117.39714 6497 ft 269 kts 181°
2026-04-22 05:35 33.05487 -117.39044 7447 ft 280 kts 154°
2026-04-22 05:36 33.04066 -117.37475 8525 ft 290 kts 127°
2026-04-22 05:36 33.03368 -117.35199 9544 ft 301 kts 99°
2026-04-22 05:36 33.03512 -117.32672 10342 ft 314 kts 83°
2026-04-22 05:36 33.03913 -117.30042 10753 ft 333 kts 80°
2026-04-22 05:37 33.04367 -117.27227 11039 ft 360 kts 81°
2026-04-22 05:37 33.04803 -117.24179 11346 ft 382 kts 82°
2026-04-22 05:37 33.05235 -117.21026 12165 ft 387 kts 82°
2026-04-22 05:37 33.05696 -117.17827 12872 ft 395 kts 82°
2026-04-22 05:38 33.06173 -117.14594 13627 ft 398 kts 82°
2026-04-22 05:38 33.06640 -117.11318 14374 ft 402 kts 82°
2026-04-22 05:38 33.07106 -117.07996 14992 ft 409 kts 82°
2026-04-22 05:38 33.07587 -117.04641 15666 ft 413 kts 82°
2026-04-22 05:39 33.08074 -117.01226 16329 ft 418 kts 82°
2026-04-22 05:39 33.08554 -116.97831 17002 ft 423 kts 82°
2026-04-22 05:39 33.09045 -116.94350 17696 ft 427 kts 82°
2026-04-22 05:39 33.09543 -116.90827 18382 ft 433 kts 82°
2026-04-22 05:40 33.10047 -116.87265 19032 ft 437 kts 82°
2026-04-22 05:40 33.10552 -116.83674 19681 ft 442 kts 82°
2026-04-22 05:40 33.11060 -116.80039 20343 ft 448 kts 82°
2026-04-22 05:40 33.11577 -116.76349 20983 ft 453 kts 82°
2026-04-22 05:41 33.11923 -116.73883 21425 ft 456 kts 82°
2026-04-22 05:41 33.12616 -116.68902 22295 ft 462 kts 82°
2026-04-22 05:41 33.13145 -116.65093 22917 ft 468 kts 82°
2026-04-22 05:41 33.13681 -116.61233 23560 ft 472 kts 82°
2026-04-22 05:42 33.14046 -116.58666 23962 ft 475 kts 81°
2026-04-22 05:42 33.14783 -116.54795 24501 ft 482 kts 77°
2026-04-22 05:42 33.15588 -116.50880 25079 ft 487 kts 77°
2026-04-22 05:42 33.16381 -116.46929 25624 ft 491 kts 78°
2026-04-22 05:43 33.17157 -116.42929 26183 ft 497 kts 78°
2026-04-22 05:43 33.18208 -116.37584 26954 ft 501 kts 78°
2026-04-22 05:43 33.18756 -116.34837 27249 ft 505 kts 78°
2026-04-22 05:43 33.19571 -116.30733 27742 ft 510 kts 78°
2026-04-22 05:44 33.20382 -116.26588 28228 ft 515 kts 78°
2026-04-22 05:44 33.21196 -116.22410 28709 ft 519 kts 78°
2026-04-22 05:44 33.22014 -116.18252 29163 ft 523 kts 78°
2026-04-22 05:44 33.22851 -116.13994 29624 ft 528 kts 78°
2026-04-22 05:45 33.23674 -116.09773 30061 ft 517 kts 79°
2026-04-22 05:45 33.24498 -116.05522 30087 ft 532 kts 79°
2026-04-22 05:45 33.25342 -116.01160 30090 ft 546 kts 79°
2026-04-22 05:45 33.26213 -115.96680 30090 ft 560 kts 79°
2026-04-22 05:46 33.27094 -115.92142 30082 ft 572 kts 79°
2026-04-22 05:46 33.28008 -115.87422 30076 ft 578 kts 79°
2026-04-22 05:46 33.29806 -115.78081 30061 ft 583 kts 79°
2026-04-22 05:47 33.31620 -115.68630 30052 ft 584 kts 79°
2026-04-22 05:47 33.33429 -115.59150 30029 ft 584 kts 79°
2026-04-22 05:48 33.35230 -115.49671 30026 ft 583 kts 79°
2026-04-22 05:48 33.37020 -115.40207 30018 ft 582 kts 79°
2026-04-22 05:49 33.38789 -115.30823 30017 ft 581 kts 79°
2026-04-22 05:49 33.40559 -115.21376 30016 ft 581 kts 79°
2026-04-22 05:50 33.41433 -115.16707 30015 ft 568 kts 79°
2026-04-22 05:50 33.42294 -115.12087 30000 ft 570 kts 79°
2026-04-22 05:50 33.44022 -115.02778 30002 ft 575 kts 79°
2026-04-22 05:51 33.45729 -114.93581 31219 ft 549 kts 79°
2026-04-22 05:51 33.46536 -114.89217 32489 ft 528 kts 79°
2026-04-22 05:51 33.47322 -114.84926 33025 ft 526 kts 79°
2026-04-22 05:52 33.48102 -114.80654 33615 ft 525 kts 79°
2026-04-22 05:52 33.48888 -114.76380 34303 ft 522 kts 79°
2026-04-22 05:52 33.49669 -114.72135 34928 ft 521 kts 79°
2026-04-22 05:52 33.50443 -114.67892 35512 ft 520 kts 79°
2026-04-22 05:53 33.51209 -114.63671 36114 ft 518 kts 79°
2026-04-22 05:53 33.51978 -114.59443 36702 ft 517 kts 79°
2026-04-22 05:53 33.52733 -114.55293 37342 ft 514 kts 79°
2026-04-22 05:53 33.53487 -114.51137 38092 ft 508 kts 80°
2026-04-22 05:54 33.54233 -114.47002 38598 ft 507 kts 80°
2026-04-22 05:54 33.54979 -114.42860 39034 ft 507 kts 80°
2026-04-22 05:54 33.55723 -114.38731 39507 ft 507 kts 79°
2026-04-22 05:54 33.56468 -114.34594 39922 ft 508 kts 79°
2026-04-22 05:55 33.57214 -114.30431 40297 ft 510 kts 79°
2026-04-22 05:55 33.57958 -114.26265 40700 ft 511 kts 79°
2026-04-22 05:55 33.58704 -114.22089 41099 ft 512 kts 79°
2026-04-22 05:55 33.59451 -114.17900 41509 ft 513 kts 79°
2026-04-22 05:56 33.60199 -114.13697 41907 ft 514 kts 79°
2026-04-22 05:56 33.60934 -114.09550 42288 ft 516 kts 79°
2026-04-22 05:56 33.61681 -114.05334 42658 ft 517 kts 79°
2026-04-22 05:56 33.62429 -114.01101 43022 ft 518 kts 79°
2026-04-22 05:57 33.63176 -113.96868 43357 ft 520 kts 79°
2026-04-22 05:57 33.63923 -113.92621 43738 ft 520 kts 79°
2026-04-22 05:57 33.64670 -113.88366 44093 ft 521 kts 79°
2026-04-22 05:57 33.65535 -113.84141 44415 ft 522 kts 75°
2026-04-22 05:58 33.66563 -113.79960 44823 ft 521 kts 73°
2026-04-22 05:58 33.67630 -113.75784 45008 ft 526 kts 73°
2026-04-22 05:58 33.69678 -113.67192 45005 ft 543 kts 75°
2026-04-22 05:59 33.71815 -113.58415 45010 ft 558 kts 74°
2026-04-22 05:59 33.73987 -113.49377 45021 ft 569 kts 75°
2026-04-22 06:00 33.76191 -113.40181 45018 ft 573 kts 74°
2026-04-22 06:00 33.78406 -113.30943 45015 ft 575 kts 74°
2026-04-22 06:01 33.80594 -113.21726 45026 ft 576 kts 74°
2026-04-22 06:01 33.82801 -113.12456 45021 ft 576 kts 74°
2026-04-22 06:02 33.84985 -113.03196 45022 ft 575 kts 74°
2026-04-22 06:02 33.87169 -112.93941 45022 ft 575 kts 74°
2026-04-22 06:03 33.89339 -112.84688 45024 ft 573 kts 74°
2026-04-22 06:03 33.91501 -112.75443 45025 ft 574 kts 74°
2026-04-22 06:04 33.93641 -112.66258 45036 ft 573 kts 75°
2026-04-22 06:04 33.95787 -112.57016 45005 ft 572 kts 75°
2026-04-22 06:05 33.97925 -112.47769 45000 ft 572 kts 75°
2026-04-22 06:05 34.00060 -112.38497 45025 ft 577 kts 75°
2026-04-22 06:06 34.02208 -112.29140 45014 ft 580 kts 75°
2026-04-22 06:06 34.04349 -112.19778 45021 ft 579 kts 75°
2026-04-22 06:07 34.06467 -112.10478 45023 ft 579 kts 75°
2026-04-22 06:07 34.08598 -112.01092 45028 ft 578 kts 75°
2026-04-22 06:08 34.10704 -111.91772 45043 ft 579 kts 75°
2026-04-22 06:08 34.12819 -111.82381 45068 ft 579 kts 75°
2026-04-22 06:09 34.14923 -111.72998 45082 ft 578 kts 75°
2026-04-22 06:09 34.17016 -111.63627 45110 ft 578 kts 75°
2026-04-22 06:10 34.19102 -111.54260 45146 ft 578 kts 75°
2026-04-22 06:10 34.21183 -111.44864 45154 ft 577 kts 75°
2026-04-22 06:11 34.23253 -111.35501 45162 ft 577 kts 75°
2026-04-22 06:11 34.25303 -111.26172 45161 ft 577 kts 75°
2026-04-22 06:12 34.27360 -111.16788 45159 ft 576 kts 75°
2026-04-22 06:12 34.29407 -111.07401 45161 ft 575 kts 75°
2026-04-22 06:13 34.31433 -110.98086 45161 ft 576 kts 75°
2026-04-22 06:13 34.33462 -110.88712 45167 ft 576 kts 75°
2026-04-22 06:14 34.35522 -110.79371 45148 ft 575 kts 72°
2026-04-22 06:14 34.38436 -110.70368 45178 ft 574 kts 66°
2026-04-22 06:15 34.41415 -110.61384 45183 ft 575 kts 69°
2026-04-22 06:15 34.44316 -110.52374 45179 ft 573 kts 67°
2026-04-22 06:16 34.47285 -110.43393 45168 ft 574 kts 68°
2026-04-22 06:16 34.50158 -110.34432 45168 ft 574 kts 67°
2026-04-22 06:17 34.53102 -110.25439 45170 ft 573 kts 68°
2026-04-22 06:17 34.56001 -110.16385 45181 ft 577 kts 68°
2026-04-22 06:18 34.58929 -110.07346 45193 ft 580 kts 68°
2026-04-22 06:18 34.61849 -109.98214 45187 ft 580 kts 68°
2026-04-22 06:19 34.64760 -109.89143 45177 ft 575 kts 68°
2026-04-22 06:19 34.67651 -109.80067 45176 ft 576 kts 68°
2026-04-22 06:20 34.70543 -109.70981 45172 ft 575 kts 68°
2026-04-22 06:20 34.73419 -109.61912 45173 ft 575 kts 68°
2026-04-22 06:21 34.76271 -109.52892 45171 ft 574 kts 68°
2026-04-22 06:21 34.79134 -109.43811 45170 ft 573 kts 68°
2026-04-22 06:22 34.81983 -109.34744 45174 ft 572 kts 69°
2026-04-22 06:22 34.84801 -109.25750 45177 ft 571 kts 69°
2026-04-22 06:23 34.87628 -109.16698 45175 ft 571 kts 69°
2026-04-22 06:23 34.90443 -109.07660 45193 ft 570 kts 69°
2026-04-22 06:24 34.94651 -108.94097 45193 ft 569 kts 69°
2026-04-22 06:25 34.97423 -108.85125 45192 ft 568 kts 69°
2026-04-22 06:25 35.00197 -108.76120 45192 ft 567 kts 69°
2026-04-22 06:26 35.02966 -108.67103 45193 ft 566 kts 69°
2026-04-22 06:26 35.05724 -108.58097 45196 ft 566 kts 69°
2026-04-22 06:27 35.08453 -108.49155 45200 ft 565 kts 69°
2026-04-22 06:27 35.11192 -108.40153 45200 ft 564 kts 70°
2026-04-22 06:28 35.13924 -108.31151 45201 ft 564 kts 70°
2026-04-22 06:28 35.16640 -108.22169 45194 ft 563 kts 70°